Terug naar catalogus

STARLINK-5448

ActiefCommunicatieVLEO
NORAD 54770·PAYLOAD·🇺🇸 United States

Gelanceerd Dec 17, 2022 vanaf Cape Canaveral Space Force Station

Loading…

Volgende Passages (komende 24 uur)

TLE

VersSource: CelesTrak SupGP

Epoch: Sep 15, 2026, 01:40 UTC

1 54770C 22175N   26258.06993056 -.00022137  00000+0 -65449-3 0  2586
2 54770  53.1574 243.4081 0001269  87.5465 223.1767 15.34379818    13

Volg STARLINK-5448 in realtime met AllMySat

Download on the App Store